Temp
-3 -3 -3 -3 -3 -3 -3 -3 -3 -3 -3 -2 -2 -2 -2 -2 -2 -3 -3 -3 -4 -5 -5 -6 -6 -6 -5 -5 -6 -4 -5 -6 -6 -7 -5 -5 -5 -5 -7 -5 -4 -5 -5 -6 -5
-4 -4 -3 -3 -3 -3 -3 -3 -3 -3 -3 -3 -2 -2 -2 -2 -2 -2 -3 -4 -4 -4 -5 -5 -6 -5 -5 -5 -6 -5 -5 -6 -6 -7 -5 -5 -5 -5 -5 -5 -5 -4 -5 -5 -6
-3 -3 -4 -4 -3 -3 -3 -3 -3 -2 -2 -3 -3 -2 -2 -2 -1 -2 -3 -3 -3 -4 -4 -5 -5 -5 -5 -6 -6 -6 -6 -5 -6 -6 -5 -6 -5 -5 -5 -5 -5 -5 -5 -6 -6
-3 -3 -3 -3 -4 -4 -4 -3 -3 -3 -3 -2 -2 -2 -2 -2 -1 -2 -2 -3 -3 -4 -4 -4 -4 -4 -5 -6 -6 -6 -6 -6 -6 -7 -8 -7 -5 -5 -6 -5 -5 -5 -5 -6 -6
-3 -3 -3 -4 -3 -3 -4 -4 -3 -3 -3 -3 -3 -2 -2 -2 -2 -2 -2 -3 -3 -3 -4 -4 -4 -4 -4 -5 -7 -7 -6 -7 -7 -7 -8 -8 -7 -5 -6 -5 -5 -5 -6 -6 -6
-3 -3 -3 -3 -3 -3 -3 -3 -3 -3 -3 -3 -3 -3 -3 -2 -2 -2 -2 -3 -3 -3 -4 -4 -5 -5 -5 -5 -6 -8 -6 -6 -7 -8 -7 -8 -7 -6 -6 -6 -5 -5 -5 -6 -6
-4 -3 -3 -3 -3 -3 -3 -3 -3 -3 -3 -3 -3 -3 -3 -3 -2 -3 -2 -2 -3 -3 -4 -4 -5 -5 -5 -4 -5 -7 -7 -7 -7 -7 -7 -8 -6 -7 -6 -6 -5 -5 -5 -5 -5
-3 -3 -3 -3 -3 -3 -3 -3 -3 -3 -3 -3 -3 -3 -3 -3 -3 -3 -3 -2 -3 -3 -3 -4 -5 -5 -5 -5 -5 -7 -7 -6 -7 -7 -8 -6 -7 -7 -5 -6 -5 -5 -5 -5 -5
-3 -3 -3 -3 -3 -3 -3 -3 -3 -3 -3 -3 -2 -3 -3 -3 -3 -3 -3 -2 -2 -3 -3 -3 -3 -4 -5 -4 -5 -6 -7 -7 -6 -7 -7 -6 -6 -6 -5 -6 -5 -5 -4 -4 -5
-3 -3 -3 -3 -3 -3 -3 -3 -3 -3 -3 -3 -3 -3 -2 -3 -3 -3 -3 -3 -3 -3 -3 -3 -3 -4 -4 -4 -4 -6 -7 -7 -6 -6 -7 -6 -4 -5 -5 -5 -5 -5 -4 -4 -4
-4 -3 -3 -3 -3 -3 -3 -3 -3 -3 -3 -3 -3 -3 -2 -3 -3 -3 -3 -3 -3 -3 -3 -3 -3 -2 -4 -4 -4 -7 -7 -6 -7 -6 -7 -7 -6 -6 -4 -6 -5 -5 -4 -4 -4
-4 -4 -3 -3 -3 -3 -3 -3 -3 -3 -3 -3 -3 -3 -3 -2 -3 -3 -3 -3 -3 -3 -3 -3 -2 -3 -4 -4 -5 -5 -7 -6 -6 -6 -6 -7 -6 -6 -6 -6 -5 -5 -4 -4 -4
-3 -3 -3 -3 -3 -3 -3 -3 -3 -3 -2 -3 -3 -3 -3 -3 -3 -3 -3 -3 -3 -3 -3 -3 -3 -4 -4 -4 -5 -5 -6 -6 -6 -6 -6 -7 -7 -7 -7 -6 -5 -5 -5 -4 -4
-4 -3 -3 -3 -3 -3 -2 -3 -3 -2 -2 -2 -2 -2 -2 -3 -2 -3 -3 -3 -3 -3 -3 -3 -3 -4 -4 -4 -4 -5 -5 -7 -6 -6 -6 -5 -6 -6 -6 -5 -4 -5 -4 -4 -4
-4 -4 -4 -3 -3 -3 -3 -3 -3 -3 -2 -2 -1 -2 -3 -2 -3 -3 -3 -3 -3 -3 -3 -3 -4 -3 -3 -3 -4 -4 -5 -7 -7 -7 -6 -6 -6 -6 -6 -6 -6 -3 -4 -4 -4
-4 -4 -4 -4 -4 -3 -3 -3 -3 -3 -2 -3 -2 -2 -2 -3 -3 -3 -3 -3 -4 -3 -3 -3 -4 -4 -3 -4 -5 -5 -6 -7 -7 -6 -7 -6 -6 -6 -6 -5 -6 -6 -5 -4 -4
-4 -4 -3 -4 -4 -4 -4 -4 -4 -3 -3 -3 -3 -2 -2 -3 -4 -3 -3 -3 -3 -3 -3 -3 -3 -4 -4 -5 -6 -6 -8 -7 -7 -6 -6 -6 -6 -5 -6 -6 -5 -6 -6 -6 -5
-4 -4 -4 -4 -5 -4 -4 -4 -3 -2 -3 -4 -5 -3 -2 -3 -4 -4 -3 -3 -3 -3 -4 -4 -4 -4 -4 -4 -6 -6 -7 -7 -7 -6 -6 -5 -6 -6 -5 -5 -5 -5 -5 -6 -6
-3 -3 -4 -4 -5 -5 -5 -4 -2 -3 -4 -5 -6 -6 -5 -3 -4 -4 -4 -4 -4 -4 -4 -4 -4 -4 -5 -6 -6 -6 -8 -6 -7 -6 -6 -5 -5 -5 -5 -5 -6 -6 -6 -5 -5
-3 -4 -5 -5 -6 -6 -6 -4 -4 -5 -5 -7 -6 -7 -7 -9 -7 -8 -5 -4 -4 -4 -5 -5 -6 -6 -6 -6 -4 -5 -6 -6 -7 -7 -6 -5 -5 -5 -5 -5 -6 -5 -6 -6 -5
-5 -5 -8 -6 -7 -7 -5 -5 -6 -6 -6 -6 -6 -5 -5 -10 -10 -9 -8 -7 -6 -6 -5 -5 -6 -7 -8 -5 -5 -6 -6 -7 -7 -7 -6 -6 -5 -5 -5 -6 -6 -6 -6 -7 -7
-6 -7 -10 -9 -9 -9 -8 -8 -8 -7 -7 -7 -7 -7 -6 -8 -10 -10 -9 -9 -9 -9 -7 -6 -6 -6 -7 -8 -7 -6 -5 -5 -6 -7 -7 -6 -6 -5 -5 -5 -6 -5 -6 -6 -5
-11 -11 -15 -15 -10 -11 -12 -10 -10 -9 -8 -10 -10 -8 -10 -10 -9 -9 -10 -9 -10 -9 -10 -9 -7 -7 -6 -8 -8 -8 -8 -8 -7 -7 -7 -7 -6 -5 -6 -6 -6 -7 -7 -6 -6
-18 -18 -19 -19 -18 -17 -16 -13 -12 -11 -11 -13 -12 -12 -11 -11 -11 -9 -10 -10 -10 -10 -10 -10 -9 -7 -6 -6 -8 -8 -7 -8 -8 -8 -7 -7 -7 -5 -6 -7 -7 -7 -7 -7 -6
-22 -22 -22 -21 -21 -22 -21 -18 -15 -14 -14 -14 -14 -13 -13 -12 -11 -11 -11 -10 -10 -11 -11 -10 -10 -9 -8 -8 -9 -8 -8 -9 -9 -7 -8 -6 -7 -7 -5 -7 -7 -8 -7 -7 -6
-24 -23 -23 -23 -23 -23 -23 -21 -20 -19 -20 -18 -17 -15 -14 -13 -15 -11 -11 -11 -11 -11 -12 -11 -10 -10 -8 -10 -9 -9 -9 -8 -8 -9 -7 -8 -7 -7 -7 -6 -8 -7 -8 -7 -7
-24 -24 -24 -23 -23 -23 -23 -22 -21 -20 -21 -20 -18 -17 -16 -15 -14 -11 -12 -11 -11 -12 -12 -12 -11 -10 -9 -9 -10 -9 -8 -9 -8 -9 -8 -8 -7 -7 -7 -7 -7 -8 -8 -8 -8
Height
5888 5887 5886 5885 5883 5882 5881 5881 5880 5880 5880 5880 5880 5880 5880 5881 5881 5881 5881 5882 5882 5884 5886 5887 5890 5892 5894 5895 5894 5893 5890 5897 5899 5899 5900 5900 5899 5896 5897 5896 5897 5894 5894 5897 5898
5887 5886 5885 5884 5883 5882 5880 5879 5878 5878 5878 5877 5877 5878 5879 5879 5880 5881 5881 5881 5882 5883 5885 5887 5889 5892 5894 5893 5897 5888 5893 5898 5891 5899 5899 5899 5899 5898 5897 5896 5894 5896 5896 5896 5898
5886 5885 5884 5883 5882 5880 5879 5878 5877 5875 5875 5876 5875 5876 5877 5878 5880 5881 5880 5880 5881 5882 5884 5886 5888 5891 5894 5894 5898 5894 5896 5900 5897 5901 5902 5899 5899 5898 5897 5897 5896 5896 5896 5896 5898
5885 5883 5883 5882 5881 5880 5878 5877 5876 5875 5874 5873 5873 5873 5874 5875 5878 5879 5879 5880 5881 5882 5883 5886 5888 5890 5894 5896 5898 5894 5894 5900 5903 5906 5902 5899 5898 5898 5898 5896 5896 5896 5897 5897 5899
5884 5883 5881 5880 5880 5879 5878 5876 5875 5873 5872 5872 5871 5871 5871 5873 5875 5877 5878 5878 5879 5881 5884 5885 5888 5890 5893 5895 5898 5895 5897 5900 5908 5906 5906 5900 5899 5900 5898 5898 5897 5897 5896 5898 5900
5883 5881 5881 5879 5878 5878 5876 5875 5874 5873 5871 5870 5870 5869 5869 5870 5871 5872 5875 5876 5877 5879 5882 5884 5887 5889 5890 5894 5896 5904 5901 5903 5906 5906 5907 5905 5900 5901 5900 5898 5898 5898 5897 5898 5900
5881 5880 5879 5878 5877 5876 5875 5873 5872 5871 5870 5869 5868 5867 5868 5867 5867 5868 5871 5873 5875 5877 5880 5883 5886 5885 5889 5891 5896 5898 5902 5906 5904 5906 5908 5908 5902 5902 5900 5899 5899 5900 5899 5899 5902
5877 5876 5875 5875 5874 5874 5873 5872 5870 5870 5869 5867 5866 5866 5865 5865 5865 5865 5867 5870 5872 5874 5877 5879 5880 5884 5885 5890 5892 5894 5900 5904 5904 5903 5906 5906 5902 5901 5901 5900 5900 5901 5902 5902 5904
5871 5871 5870 5870 5869 5869 5868 5868 5868 5867 5866 5865 5864 5863 5862 5863 5863 5863 5863 5866 5868 5870 5872 5875 5876 5880 5883 5884 5887 5890 5897 5902 5899 5902 5904 5902 5896 5899 5900 5900 5900 5901 5903 5904 5905
5866 5864 5864 5865 5864 5864 5863 5862 5863 5863 5862 5861 5862 5862 5861 5860 5861 5861 5861 5862 5863 5866 5868 5871 5873 5876 5878 5879 5883 5888 5895 5899 5898 5903 5902 5896 5898 5899 5900 5899 5899 5902 5904 5905 5906
5859 5858 5856 5857 5858 5858 5857 5857 5858 5858 5856 5856 5857 5857 5857 5857 5858 5858 5858 5858 5860 5861 5864 5867 5867 5870 5875 5879 5884 5887 5895 5897 5893 5894 5900 5898 5893 5882 5894 5897 5900 5902 5903 5905 5906
5853 5852 5849 5849 5850 5850 5849 5849 5850 5849 5852 5849 5849 5853 5852 5853 5853 5854 5854 5856 5855 5857 5859 5860 5862 5871 5874 5877 5881 5884 5890 5897 5896 5894 5894 5898 5895 5894 5889 5900 5900 5902 5903 5904 5905
5844 5844 5842 5838 5841 5841 5841 5841 5840 5840 5841 5846 5843 5845 5846 5847 5849 5850 5850 5851 5852 5852 5854 5855 5862 5865 5867 5871 5875 5879 5882 5891 5891 5891 5894 5899 5899 5902 5899 5898 5900 5901 5903 5903 5904
5834 5833 5835 5832 5832 5831 5831 5833 5831 5831 5830 5838 5834 5837 5840 5841 5843 5842 5844 5845 5846 5849 5848 5851 5854 5857 5860 5864 5871 5875 5881 5886 5891 5887 5890 5895 5900 5900 5901 5897 5900 5902 5903 5903 5904
5823 5822 5823 5823 5820 5820 5822 5823 5823 5823 5821 5823 5825 5830 5831 5833 5836 5838 5837 5837 5840 5843 5843 5848 5848 5851 5852 5859 5866 5872 5879 5882 5887 5888 5886 5886 5889 5895 5900 5896 5894 5897 5900 5902 5903
5810 5809 5809 5808 5810 5808 5809 5811 5813 5815 5807 5815 5813 5819 5822 5824 5826 5826 5830 5831 5834 5833 5835 5840 5842 5844 5849 5853 5857 5868 5872 5877 5881 5884 5881 5883 5883 5886 5890 5894 5896 5892 5896 5898 5900
5793 5792 5793 5794 5792 5795 5795 5795 5798 5797 5802 5804 5803 5806 5811 5812 5815 5816 5821 5821 5824 5826 5828 5835 5836 5838 5842 5845 5850 5856 5864 5868 5871 5872 5875 5883 5875 5883 5886 5888 5889 5888 5888 5894 5898
5772 5773 5772 5773 5774 5775 5777 5780 5781 5787 5791 5791 5793 5792 5796 5801 5804 5805 5807 5811 5814 5817 5820 5823 5826 5831 5835 5837 5843 5846 5855 5857 5861 5866 5874 5879 5877 5875 5884 5882 5882 5876 5884 5881 5889
5751 5751 5750 5751 5752 5753 5756 5759 5765 5771 5776 5776 5781 5781 5782 5785 5790 5793 5794 5800 5805 5809 5812 5815 5818 5826 5827 5831 5836 5840 5841 5853 5859 5865 5867 5872 5875 5879 5881 5879 5867 5869 5887 5887 5885
5725 5725 5723 5725 5726 5728 5731 5739 5742 5750 5752 5755 5758 5765 5769 5775 5774 5780 5781 5787 5793 5798 5803 5807 5810 5815 5820 5823 5823 5826 5840 5841 5842 5849 5852 5862 5867 5871 5873 5875 5866 5875 5880 5885 5881
5694 5694 5694 5695 5695 5696 5703 5714 5716 5723 5729 5731 5736 5741 5748 5758 5766 5768 5772 5777 5778 5785 5790 5797 5800 5807 5812 5807 5816 5819 5821 5828 5839 5841 5845 5852 5855 5867 5869 5868 5870 5870 5874 5879 5883
5658 5660 5658 5661 5667 5669 5675 5684 5689 5697 5702 5704 5709 5720 5727 5733 5741 5755 5761 5766 5775 5774 5775 5782 5789 5791 5797 5805 5808 5810 5812 5818 5820 5828 5834 5842 5847 5864 5866 5863 5862 5866 5869 5871 5877
5622 5626 5630 5622 5629 5636 5645 5653 5658 5666 5673 5679 5686 5694 5703 5712 5718 5726 5739 5757 5762 5765 5765 5772 5772 5779 5785 5792 5797 5797 5804 5809 5815 5824 5824 5830 5834 5851 5854 5848 5855 5855 5860 5866 5869
5591 5597 5602 5599 5602 5602 5606 5618 5622 5634 5644 5650 5660 5665 5675 5683 5695 5707 5717 5731 5745 5753 5756 5759 5762 5762 5768 5779 5792 5792 5794 5800 5807 5810 5813 5818 5831 5841 5848 5846 5850 5842 5855 5861 5863
5570 5577 5577 5578 5582 5587 5586 5591 5598 5607 5612 5612 5623 5638 5642 5652 5669 5681 5700 5713 5722 5736 5735 5740 5742 5751 5759 5770 5780 5785 5788 5792 5793 5796 5804 5810 5820 5829 5838 5841 5845 5846 5845 5852 5856
5559 5559 5562 5563 5566 5568 5571 5575 5577 5584 5583 5589 5599 5608 5615 5629 5630 5650 5668 5688 5701 5718 5718 5726 5729 5740 5745 5757 5764 5772 5778 5782 5783 5786 5790 5799 5808 5820 5828 5836 5836 5831 5838 5842 5847
5547 5546 5546 5551 5552 5554 5558 5559 5562 5567 5572 5577 5579 5588 5598 5598 5608 5626 5641 5658 5671 5690 5703 5707 5717 5725 5732 5744 5756 5758 5757 5771 5779 5782 5784 5788 5793 5808 5814 5820 5828 5831 5832 5835 5833
Wind_Speed
8 9 8 9 9 9 8 8 7 6 7 12 13 12 10 7 4 3 8 11 16 20 19 18 15 15 16 18 16 6 10 18 13 16 16 11 4 8 7 7 7 10 8 7 8
9 9 7 8 9 9 11 11 8 8 7 6 13 15 14 11 7 3 5 11 17 18 19 18 16 16 19 16 9 18 20 15 17 5 19 11 9 5 6 6 10 8 8 5 8
9 10 10 10 11 11 11 10 10 9 8 8 7 11 17 15 9 3 7 10 15 18 18 19 17 17 21 17 13 15 14 9 17 11 22 10 9 7 5 6 7 5 7 6 7
10 10 10 10 10 11 12 11 8 8 10 8 8 9 9 17 14 11 8 11 15 18 19 19 18 18 20 18 6 20 1 8 9 13 17 7 5 7 5 8 7 5 4 8 10
12 11 10 10 11 11 12 11 10 10 11 10 9 8 9 8 15 14 11 12 15 19 20 21 18 19 17 16 14 19 7 7 13 7 8 14 9 4 9 7 7 7 7 9 12
13 12 12 11 10 10 10 11 11 12 12 11 10 10 8 7 8 17 17 16 15 18 26 24 21 21 20 17 16 9 17 6 18 9 7 13 16 5 6 7 6 4 6 10 11
18 17 15 13 13 12 12 10 10 11 12 12 12 11 8 7 7 9 18 20 19 17 23 30 28 29 20 18 19 14 9 13 22 10 12 12 18 11 4 5 4 3 6 9 11
24 23 21 20 20 18 17 15 13 13 14 14 13 12 11 8 5 7 8 21 22 22 21 27 37 34 30 22 24 19 15 19 13 9 15 8 21 10 5 5 4 4 6 9 11
25 25 25 23 23 21 21 21 20 21 20 18 17 13 13 11 8 7 7 10 25 25 24 27 33 34 32 30 26 19 19 17 25 12 15 13 21 13 11 7 5 6 8 10 11
25 27 27 25 25 25 24 24 23 23 23 24 20 18 14 14 8 6 7 9 14 28 28 27 30 31 33 33 29 16 20 18 23 21 15 23 18 24 14 9 7 8 10 10 9
24 28 30 29 28 28 27 26 25 26 25 27 23 22 18 17 12 11 8 10 10 18 31 28 32 27 31 28 24 18 17 10 30 27 14 21 24 19 3 4 9 10 10 10 9
25 26 31 32 31 32 32 30 27 28 23 27 27 22 24 20 16 16 14 12 11 12 21 32 33 25 27 31 28 24 24 22 29 32 15 16 23 19 16 13 12 12 11 10 9
37 34 33 34 32 32 34 32 32 30 29 24 28 24 27 27 22 20 19 17 15 15 16 21 23 28 31 31 31 30 31 23 29 25 16 14 13 16 23 19 16 15 14 14 14
39 39 33 39 39 37 36 34 37 36 34 26 33 30 27 27 24 27 25 24 22 17 18 17 24 31 35 34 30 30 31 25 20 27 26 25 22 22 22 22 16 17 16 15 14
46 46 44 40 41 41 42 39 39 38 42 37 34 28 30 33 32 27 29 29 26 22 25 16 22 28 36 34 31 29 33 26 24 23 25 36 31 23 31 31 29 18 19 20 19
50 49 48 47 45 48 47 45 46 45 46 39 41 36 33 30 32 35 33 32 29 32 29 23 22 26 29 33 35 30 31 33 30 27 35 34 35 22 30 32 31 31 17 19 19
54 56 56 55 55 52 51 51 51 52 47 45 44 41 38 38 37 39 35 35 35 34 34 25 26 25 30 35 36 37 34 35 37 39 38 24 38 27 24 34 30 39 23 17 19
59 59 58 57 56 57 55 55 59 54 52 50 46 50 45 43 40 38 42 42 41 38 36 33 33 30 29 34 36 42 40 44 40 39 35 31 39 42 31 33 33 21 21 21 24
68 66 64 61 59 58 57 61 59 57 55 56 52 54 55 51 47 45 46 44 42 40 40 37 36 29 31 31 41 39 47 41 38 33 34 31 31 33 33 29 39 14 25 33 37
74 72 70 66 64 57 60 63 62 57 57 58 59 52 51 41 48 40 48 48 45 44 40 39 34 32 34 34 38 43 35 44 48 46 46 37 37 34 31 34 31 28 25 30 23
85 81 65 71 64 63 62 56 55 58 63 67 66 65 63 42 39 38 43 41 46 42 44 42 42 34 31 45 41 40 46 47 40 50 49 44 41 27 34 32 32 39 43 25 30
90 86 69 69 65 62 63 58 60 58 68 73 74 69 71 65 46 43 44 42 31 35 44 46 46 48 41 34 37 40 41 46 54 50 51 47 45 23 31 29 37 36 28 33 33
82 78 57 60 72 63 59 60 65 68 73 77 77 76 70 68 68 60 50 41 40 39 41 40 50 49 50 43 36 43 42 39 53 49 48 52 53 37 37 38 25 27 20 19 24
59 55 46 49 56 61 62 63 72 77 79 76 76 78 79 77 69 70 63 53 39 42 43 40 45 55 59 52 38 39 43 42 40 50 57 51 48 46 36 42 23 40 23 30 32
44 42 41 44 45 38 44 59 69 77 78 77 81 83 84 84 79 74 69 59 48 47 60 56 60 53 48 42 33 38 37 41 45 50 51 57 46 43 47 36 34 23 26 44 45
34 38 36 36 37 42 42 42 46 55 63 68 69 77 86 86 75 84 78 72 58 50 53 60 64 57 53 39 44 39 39 38 43 44 47 50 49 41 35 46 37 36 39 39 34
26 28 31 30 31 33 39 50 53 43 49 58 66 67 77 83 89 90 87 82 78 62 48 51 59 62 60 50 37 46 49 38 38 39 40 49 54 49 51 46 49 48 31 30 37
Wind_Direction
349 360 10 16 15 3 340 325 317 319 287 250 244 240 251 254 264 263 225 207 207 192 187 175 166 157 156 156 175 303 159 135 106 245 287 286 275 226 249 255 146 251 228 250 253
341 336 340 347 351 353 357 1 339 308 298 290 256 243 237 248 253 261 201 198 204 208 193 181 168 160 151 156 142 216 158 137 129 290 275 269 269 251 246 237 249 226 226 222 248
332 334 326 324 329 332 335 338 358 350 308 300 292 262 246 241 245 177 216 216 208 210 203 188 179 163 153 168 116 281 136 63 66 227 277 257 259 249 244 244 248 259 235 195 202
326 322 315 321 318 325 329 325 335 347 356 335 305 290 271 245 243 237 222 212 210 210 208 196 183 172 160 173 196 256 102 84 117 255 277 285 242 255 278 271 273 237 229 193 193
313 312 310 307 310 313 321 321 319 324 329 327 340 319 295 282 242 233 224 212 216 212 212 200 193 183 176 176 160 279 287 89 276 239 264 280 281 248 269 291 274 252 215 201 201
309 312 304 305 308 313 313 315 317 316 320 327 328 324 335 286 270 227 220 210 219 209 210 212 205 197 193 191 183 195 302 105 262 264 209 274 289 273 248 284 273 268 187 177 190
299 301 300 298 298 299 299 301 307 314 316 315 312 322 319 322 276 250 225 222 213 219 210 209 213 212 217 214 196 190 215 249 261 228 222 217 260 300 231 263 246 243 174 160 179
293 295 294 297 298 297 295 289 291 299 304 307 308 314 310 309 312 276 248 224 217 218 218 210 211 219 227 220 207 187 210 243 262 267 234 251 229 239 269 248 206 199 181 161 167
290 292 292 290 289 292 292 290 288 293 293 293 296 296 293 294 294 285 253 228 221 220 219 218 221 221 222 227 216 198 220 227 238 207 238 242 257 237 238 221 204 189 183 176 172
289 285 283 283 281 280 279 281 281 282 289 287 289 286 285 284 291 278 268 243 221 223 224 222 227 226 226 224 220 202 224 208 256 278 256 277 274 231 217 198 205 203 190 187 181
291 289 286 282 281 279 276 275 279 279 280 282 282 280 278 278 282 274 257 256 245 230 227 229 229 230 232 230 224 190 220 230 239 217 216 261 290 186 181 229 223 215 200 192 193
290 284 283 281 275 274 272 273 273 276 271 278 282 274 276 266 267 270 264 261 252 239 228 229 237 231 231 234 225 206 204 223 257 274 225 256 296 268 280 256 243 226 215 196 195
286 286 276 276 275 273 270 271 271 272 272 268 273 273 270 267 259 264 266 262 257 249 247 242 234 230 231 230 226 214 191 214 248 273 227 232 244 235 265 259 227 236 221 208 202
281 282 280 274 273 271 269 269 269 269 270 261 259 263 267 270 265 257 255 262 260 258 253 247 228 223 231 230 227 218 196 203 209 214 244 248 237 255 248 271 258 247 244 237 232
279 279 275 269 273 268 267 265 266 269 270 271 260 259 255 261 260 258 255 250 256 256 249 256 234 227 229 231 229 227 196 217 229 231 244 254 217 212 260 227 265 253 252 249 248
275 275 274 272 269 267 265 260 260 264 261 265 267 266 265 260 256 258 256 254 249 250 249 238 240 230 234 229 223 225 210 217 229 226 240 245 258 201 251 256 236 253 253 251 254
279 276 274 272 271 268 262 259 258 257 262 263 265 265 261 257 253 252 250 251 250 253 255 252 245 240 224 229 222 214 215 221 224 222 235 245 263 260 219 252 257 234 225 264 268
279 276 273 270 266 265 259 258 260 262 257 256 259 262 258 256 253 253 252 245 245 243 242 240 237 238 232 231 225 221 215 220 218 221 231 232 235 260 253 251 257 203 242 242 269
277 276 275 272 268 263 259 260 265 264 257 257 247 253 259 255 255 250 250 249 246 244 243 248 245 236 232 233 220 228 221 221 225 227 229 233 245 247 245 243 257 263 225 244 241
282 284 285 281 278 269 263 262 259 255 250 240 245 242 246 245 254 240 249 250 243 244 242 239 236 239 238 229 230 227 231 222 217 221 226 229 232 238 247 255 230 223 212 238 272
291 289 286 282 278 273 273 271 255 247 242 244 239 239 236 225 226 236 234 245 248 242 239 236 235 221 228 235 231 229 222 218 229 220 224 227 226 227 254 256 259 258 261 233 238
292 288 282 278 272 268 267 258 249 243 238 236 234 238 236 226 211 220 235 231 225 243 238 235 231 233 221 233 238 237 237 229 217 221 226 223 225 210 242 256 261 251 252 242 263
287 286 273 269 271 260 251 249 240 235 229 232 236 235 231 233 222 212 209 223 239 221 233 223 233 228 227 216 225 231 228 234 225 220 225 226 221 193 233 229 233 235 243 231 201
278 273 263 252 253 254 244 238 231 229 231 234 228 231 231 224 222 224 209 200 208 234 226 222 224 235 232 232 219 226 230 231 225 226 224 225 233 202 219 251 238 236 207 211 214
268 268 263 254 246 245 250 241 232 234 229 225 227 223 221 225 222 220 211 195 197 214 224 214 221 219 230 216 225 224 231 232 228 229 224 229 227 232 200 236 237 227 215 211 217
269 266 263 261 256 248 242 233 237 240 235 223 228 222 219 220 217 211 203 199 198 205 227 224 225 222 222 223 204 215 230 227 238 238 232 221 223 219 230 212 233 250 221 224 235
268 269 271 263 254 250 239 238 227 230 234 231 223 223 224 217 217 218 207 199 197 197 215 233 225 222 227 220 218 221 215 224 231 240 238 224 220 215 221 220 223 229 221 239 256